Regional Weather Roundup
Issued by NWS

Home | Current Version | Previous Version | Graphics & Text | Print | Product List | Glossary On
Versions: 1 2 3 4 5 6 7 8 9 10 11 12 13 14 15 16 17 18 19 20 21 22 23 24 25 26 27 28 29 30 31 32 33 34 35 36 37 38 39 40 41 42 43 44 45 46 47 48 49 50
000
ASUS45 KCYS 301610
RWRWY

WYOMING REGIONAL WEATHER ROUNDUP
NATIONAL WEATHER SERVICE CHEYENNE WY
1000 AM MDT THU JUL 30 2015

NOTE:  "FAIR" INDICATES FEW OR NO CLOUDS BELOW 12,000 FEET
WITH NO SIGNIFICANT WEATHER AND/OR OBSTRUCTIONS TO VISIBILITY.

WYZ001-301700-
YELLOWSTONE NATIONAL PARK

CITY           SKY/WX    TMP DP  RH WIND       PRES   REMARKS
LK YELLOWSTONE   N/A     55  40  56 E5        30.57F
W YELLOWSTONE  NOT AVBL

$$
WYZ002>013-054>058-071-098>099-301700-
NORTHERN WYOMING

CITY           SKY/WX    TMP DP  RH WIND       PRES   REMARKS
JACKSON        FAIR      57  37  47 CALM      30.50F
CODY           FAIR      73  37  27 S6        30.38S
GREYBULL       FAIR      70  34  26 CALM      30.33S
WORLAND        FAIR      72  33  24 CALM      30.34S
SHERIDAN       FAIR      77  43  29 VRB3      30.31S
BUFFALO        FAIR      77  34  21 SE5       30.37S
GILLETTE       FAIR      78  36  21 CALM      30.33S
HULETT         FAIR      75  37  25 W7        30.33F
NEWCASTLE      FAIR      77  34  20 W6        30.33S

$$
WYZ014>020-022>026-101>103-301700-
CENTRAL WYOMING

CITY           SKY/WX    TMP DP  RH WIND       PRES   REMARKS
BIG PINEY      FAIR      62  35  36 S5        30.51S
PINEDALE       FAIR      63  28  27 CALM      30.51S
DUBOIS         FAIR      59  28  31 CALM      30.51F
LANDER         FAIR      73  32  22 NW5       30.40F
RIVERTON       FAIR      71  38  29 E5        30.42S
CASPER         FAIR      71  39  31 VRB5      30.40S
DOUGLAS        FAIR      73  41  31 NW7       30.38S

$$
WYZ021-027>030-104>119-301700-
SOUTHERN WYOMING

CITY           SKY/WX    TMP DP  RH WIND       PRES   REMARKS
EVANSTON       FAIR      66  28  24 VRB3      30.51R
KEMMERER       FAIR      66  28  24 CALM      30.52S
FORT BRIDGER   FAIR      68  31  24 E6        30.53S
ROCK SPRINGS   FAIR      68  29  23 VRB5      30.48S
DIXON          FAIR      68  26  20 CALM      30.48S
RAWLINS        FAIR      67  23  19 VRB3      30.48S
SARATOGA       FAIR      72  27  18 S5        30.49S
LARAMIE        FAIR      70  31  23 S5        30.49S
CHEYENNE       FAIR      74  45  35 N12       30.41S
TORRINGTON     FAIR      73  51  46 CALM      30.31S
PINE BLUFFS    FAIR      77  48  36 N13       30.36R

$$


USA.gov is the U.S. government's official web portal to all federal, state and local government web resources and services.